Weather Roundup
Issued by NWS

Home | Current Version | Previous Version | Text Only | Print | Product List | Glossary On
Versions: 1 2 3 4 5 6 7 8 9 10 11 12 13 14 15 16 17 18 19 20 21 22 23 24 25 26 27 28 29 30 31 32 33 34 35 36 37 38 39 40 41 42 43 44 45 46 47 48 49 50
850
NZUS93 KARX 232310
HRRWXR

CURRENT HOURLY OBSERVATIONS ACROSS
MUCH OF THE UPPER MISSISSIPPI VALLEY
NATIONAL WEATHER SERVICE LA CROSSE WI
600 PM CDT SAT JUL 23 2016


...SOUTHEAST MINNESOTA...


CITY           SKY/WX    TMP DP  RH WIND       PRES   REMARKS
ROCHESTER      MOSUNNY   75  70  84 SE14G25   29.84F
ROCHESTER/MAYO FAIR      75  71  87 SE13G24   29.84F
WINONA         CLOUDY    75  70  83 SE9       29.83F
AUSTIN         CLOUDY    77  70  78 SE13G20   29.83F
ALBERT LEA     SUNNY     79  72  78 S16G23    29.82F
DODGE CENTER   MOSUNNY   75  72  88 S16       29.84F
PRESTON        CLOUDY    71  67  87 SE14G22   29.87F
OWATONNA       CLOUDY    79  70  73 S12G17    29.83F
FARIBAULT      CLOUDY    79  72  78 S6        29.84S
$$

...ELSEWHERE IN MINNESOTA...


CITY           SKY/WX    TMP DP  RH WIND       PRES   REMARKS
MINNEAPOLIS    CLOUDY    74  70  87 E13       29.83F
INTNL FALLS    CLOUDY    76  64  66 SE13      29.77F
DULUTH         PTSUNNY   70  63  78 E10       29.87F
RED WING       CLOUDY    75  70  83 N3        29.84R
REDWOOD FALLS  PTSUNNY   83  76  79 E10       29.75F HX  91
MANKATO        SUNNY     81  72  74 SE15G23   29.80F
WORTHINGTON    SUNNY     86  77  74 S9G17     29.78F HX  97
FAIRMONT       CLOUDY    84  75  74 SE15      29.78F HX  92
$$

...SOUTHWEST WISCONSIN...


CITY           SKY/WX    TMP DP  RH WIND       PRES   REMARKS
LA CROSSE      LGT RAIN  73  68  84 SE14      29.86F
PRAIRIE DU CHI LGT RAIN  70  68  95 E3        29.89F
BOSCOBEL       LGT RAIN  71  69  93 NE3       29.91F
LONE ROCK      TSTM      71  69  93 E9        29.93F FOG
PLATTEVILLE    CLOUDY    70  70 100 NE12G22   29.95F VSB 1/2
FORT MC COY    LGT RAIN  69  68  96 SE7       29.89
CAMP DOUGLAS   CLOUDY    70  70 100 SE8       29.92F
MAUSTON-NEW LI LGT RAIN  70  69  97 SE8       29.93F
VIROQUA        CLOUDY    68  68 100 SE9       29.93F
WIS DELLS      TSTM      72  69  93 W5        29.97F
$$

...ELSEWHERE IN WISCONSIN...


CITY           SKY/WX    TMP DP  RH WIND       PRES   REMARKS
MILWAUKEE      LGT RAIN  75  70  84 SE6       29.95F
MADISON        LGT RAIN  73  71  93 NW3       29.94S
GREEN BAY      CLOUDY    79  69  71 S7        29.93F
EAU CLAIRE     CLOUDY    73  68  84 SE12      29.86R
BLACK RVR FLS  MOCLDY    71  71 100 S7        29.86F
MEDFORD        CLOUDY    71  71 100 S10       29.91R
WAUSAU         CLOUDY    74  68  81 S10       29.90F
WIS RAPIDS     LGT RAIN  71  66  84 S9        29.92F
MARSHFIELD     LGT RAIN  71  67  87 S8        29.90F
RICE LAKE      HVY RAIN  72  69  92 SE10      29.89S
$$

...NORTHEAST IOWA...


CITY           SKY/WX    TMP DP  RH WIND       PRES   REMARKS
WATERLOO       CLOUDY    77  74  90 SE9       29.84F
DUBUQUE        CLOUDY    71  70  96 NE8       29.96F THUNDER
DECORAH        CLOUDY    70  70 100 E10G17    29.88F
MASON CITY     MOSUNNY   77  71  82 SE8       29.84F
CHARLES CITY   CLOUDY    75  73  94 SE14      29.86F
OELWEIN        CLOUDY    72  70  94 E10       29.88F
$$

...ELSEWHERE IN IOWA...


CITY           SKY/WX    TMP DP  RH WIND       PRES   REMARKS
DES MOINES     MOSUNNY   92  77  61 S10       29.81F HX 105
IOWA CITY      CLOUDY    88  81  79 CALM      29.88R HX 106
FORT DODGE     CLOUDY    86  77  74 S10       29.82S HX  97
MARSHALLTOWN   CLOUDY    87  83  87 SE10      29.83F HX 108
CEDAR RAPIDS   LGT RAIN  76  75  97 E10       29.87F
$$

...NORTHERN ILLINOIS...


CITY           SKY/WX    TMP DP  RH WIND       PRES   REMARKS
CHICAGO-OHARE  CLOUDY    87  74  64 SW3       29.92F HX  95
CHICAGO-MIDWAY CLOUDY    89  75  63 SW10      29.91F HX  99
MOLINE         CLOUDY    88  80  77 SE10      29.87F HX 104
ROCKFORD       TSTM      73  69  87 E10       29.94F
PEORIA         CLOUDY    90  78  68 S9        29.91F HX 104
$$

NOTE: "FAIR" INDICATES FEW OR NO CLOUDS BELOW 12,000 FEET WITH NO
SIGNIFICANT WEATHER AND/OR OBSTRUCTIONS TO VISIBILITY. WIND
SPEEDS ARE IN MILES-PER-HOUR.




USA.gov is the U.S. government's official web portal to all federal, state and local government web resources and services.